Regional Weather Roundup
Issued by NWS

Home | Current Version | Previous Version | Text Only | Print | Product List | Glossary Off
Versions: 1 2 3 4 5 6 7 8 9 10 11 12 13 14 15 16 17 18 19 20 21 22 23 24 25 26 27 28 29 30 31 32 33 34 35 36 37 38 39 40 41 42 43 44 45 46 47 48 49 50

426
ASUS45 KABQ 301701
RWRNM
NEW MEXICO REGIONAL WEATHER ROUNDUP
NATIONAL WEATHER SERVICE ALBUQUERQUE NM
1100 AM MDT FRI SEP 30 2016

NOTE: "FAIR" MEANS FEW OR NO CLOUDS BELOW 12,000 FEET AGL WITH NO
       SIGNIFICANT WEATHER OR OBSTRUCTIONS TO VISION.

      THIS PRODUCT IS RELEASED AS TWO VERSIONS.  ONE VERSION NEAR
      THE TOP OF THE HOUR CONTAINING PRELIMINARY DATA FROM ALBUQUERQUE
      AND OTHER STATIONS.  A FINAL VERSION WITH ADDITIONAL DATA IS
      ISSUED ABOUT 10 MINUTES AFTER THE HOUR.

NMZ501-503-504-510>518-301800-
NORTHWEST PLATEAU/NORTHCENTRAL MOUNTAINS

CITY           SKY/WX    TMP DP  RH WIND       PRES   REMARKS
FARMINGTON     FAIR      58  53  84 CALM      30.34F
LOS ALAMOS     FAIR      61  46  58 CALM      30.41F
SANTA FE       FAIR      67  47  48 SW13      30.35F
TAOS           FAIR      61  43  51 N5        30.41S
ANGEL FIRE     FAIR      59  43  53 SW14G21   30.45F

$$
NMZ402-403-502-505>509-301800-
WESTCENTRAL MOUNTAINS/SOUTHWEST MOUNTAINS

CITY           SKY/WX    TMP DP  RH WIND       PRES   REMARKS
GALLUP         FAIR      60  50  69 CALM      30.40S
SILVER CITY    FAIR      64  54  68 S5        30.36S

$$
NMZ407-409-411-412-301800-
SOUTHERN DESERTS

CITY           SKY/WX    TMP DP  RH WIND       PRES   REMARKS
DEMING         FAIR      69  57  65 CALM      30.31S
LAS CRUCES     PTSUNNY   66  60  81 S9        30.32S
ALAMOGORDO     FAIR      64  61  88 N6        30.30S
T OR C         FAIR      66  54  65 CALM      30.31S

$$
NMZ519>523-301800-
CENTRAL VALLEYS/CENTRAL HIGHLANDS

CITY           SKY/WX    TMP DP  RH WIND       PRES   REMARKS
ALBUQUERQUE    FAIR      64  54  69 S5        30.34F
DOUBLE EAGLE   MOSUNNY   64  54  68 CALM      30.37S
MORIARTY ARPT  FAIR      70  44  38 W6        30.35F
CLINES CORNERS FAIR      65  47  52 W18       30.38F
BELEN          FAIR      63  54  71 SE6       30.34F
SOCORRO        FAIR      65  56  70 S3        30.32F

$$
NMZ524>526-539-540-301800-
SOUTHCENTRAL MOUNTAINS

CITY           SKY/WX    TMP DP  RH WIND       PRES   REMARKS
RUIDOSO        FAIR      57  54  88 NE3       30.40F

$$
NMZ527>531-301800-
NORTHEAST HIGHLANDS/NORTHEAST PLAINS

CITY           SKY/WX    TMP DP  RH WIND       PRES   REMARKS
LAS VEGAS      FAIR      70  39  32 SW9       30.32F
RATON          FAIR      68  41  37 CALM      30.28F
CLAYTON        FAIR      72  48  42 SW13      30.21F

$$
NMZ532>537-301800-
EASTCENTRAL PLAINS

CITY           SKY/WX    TMP DP  RH WIND       PRES   REMARKS
TUCUMCARI      FAIR      73  50  44 SW18G28   30.21S
CANNON AFB     FAIR      74  50  43 SW16G23   30.25F
CLOVIS AIRPORT FAIR      72  52  49 S13G20    30.25F

$$
NMZ028-029-538-301800-
SOUTHEAST PLAINS

CITY           SKY/WX    TMP DP  RH WIND       PRES   REMARKS
ROSWELL        FAIR      66  52  60 S12       30.26R
ARTESIA        FAIR      66  55  68 S14       30.26F
CARLSBAD       FAIR      70  54  56 S9        30.26S
HOBBS          SUNNY     68  48  49 SE14      30.30F


$$




USA.gov is the U.S. government's official web portal to all federal, state and local government web resources and services.